Regional Weather Roundup
Issued by NWS

Home | Current Version | Previous Version | Text Only | Print | Product List | Glossary On
Versions: 1 2 3 4 5 6 7 8 9 10 11 12 13 14 15 16 17 18 19 20 21 22 23 24 25 26 27 28 29 30 31 32 33 34 35 36 37 38 39 40 41 42 43 44 45 46 47 48 49 50
000
ASUS43 KBIS 010320
RWRND

NORTH DAKOTA REGIONAL WEATHER ROUNDUP
NATIONAL WEATHER SERVICE BISMARCK ND
900 PM CST SAT JAN 31 2015

NOTE: "FAIR" INDICATES FEW OR NO CLOUDS BELOW 12,000 FEET WITH NO
SIGNIFICANT WEATHER AND/OR OBSTRUCTIONS TO VISIBILITY.


NDZ001>003-009>011-017-010400-
NORTHWEST NORTH DAKOTA

CITY           SKY/WX    TMP DP  RH WIND       PRES   REMARKS
WILLISTON      FLURRIES   0  -8  69 NE10      30.45R WCI -16
MINOT          CLOUDY    -6 -14  68 N14       30.46S WCI -26
MINOT AFB      PTCLDY    -7 -14  73 NE14      30.48R WCI -28
$$

NDZ018>021-031>035-040>046-010400-
SOUTHWEST NORTH DAKOTA

CITY           SKY/WX    TMP DP  RH WIND       PRES   REMARKS
BISMARCK       LGT SNOW   0  -5  79 NE18      30.39R WCI -21
DICKINSON      LGT SNOW   0  -5  79 NE14      30.27R WCI -19
GARRISON         N/A     -2 -12  62 NE9       30.41R WCI -18
HETTINGER ARPT LGT SNOW   5   1  83 NE14G24   30.23R FOG     WCI -12
$$

NDZ004>008-012>016-024-026-027-054-010400-
NORTHEAST NORTH DAKOTA

CITY           SKY/WX    TMP DP  RH WIND       PRES   REMARKS
GRAND FORKS    PTCLDY    -6 -15  65 N16       30.51S WCI -28
GRND FRKS AFB  PTCLDY    -8 -17  65 N17G23    30.51S WCI -31
DEVILS LAKE    MOCLDY    -9 -18  64 N14       30.45S WCI -31
$$

NDZ022-023-025-028>030-036>039-047>053-010400-
SOUTHEAST NORTH DAKOTA

CITY           SKY/WX    TMP DP  RH WIND       PRES   REMARKS
FARGO          CLOUDY     1  -9  62 N22       30.40S WCI -21
JAMESTOWN      CLOUDY    -2 -11  65 N20       30.38R WCI -24
$$



USA.gov is the U.S. government's official web portal to all federal, state and local government web resources and services.